Regional Weather Roundup
Issued by NWS

Home | Current Version | Previous Version | Text Only | Print | Product List | Glossary Off
Versions: 1 2 3 4 5 6 7 8 9 10 11 12 13 14 15 16 17 18 19 20 21 22 23 24 25 26 27 28 29 30 31 32 33 34 35 36 37 38 39 40 41 42 43 44 45 46 47 48 49 50

000
ASUS43 KMPX 071101
RWRMN
WEATHER ROUNDUP FOR MINNESOTA
NATIONAL WEATHER SERVICE TWIN CITIES/CHANHASSEN MN
600 AM CDT TUE JUL 07 2015


NOTE: "FAIR" INDICATES FEW OR NO CLOUDS BELOW 12,000 FEET WITH NO
SIGNIFICANT WEATHER AND/OR OBSTRUCTIONS TO VISIBILITY. N/A MEANS
CURRENT SKY AND/OR WEATHER CONDITIONS ARE NOT AVAILABLE.

MNZ060>063-068>070-071200-
   Twin Cities Metro

CITY           SKY/WX    TMP DP  RH WIND       PRES   REMARKS
TWIN CITIES    PTCLDY    54  44  69 N10       30.12R
ST PAUL        CLEAR     52  47  83 NW10      30.12R
CRYSTAL        CLEAR     53  45  74 N8        30.12R
BLAINE         CLEAR     52  46  82 NW8       30.12R
LAKEVILLE      CLEAR     50  46  87 NW6       30.12R
EDEN PRAIRIE   CLEAR     53  46  77 N9        30.11R
SOUTH ST PAUL  PTCLDY    54  47  76 NW5       30.12R
LAKE ELMO      FAIR      52  48  87 NW8       30.12R
$$
MNZ001>005-007-008-013>017-022>024-027-028-071200-
   Northwest Minnesota

CITY           SKY/WX    TMP DP  RH WIND       PRES   REMARKS
BEMIDJI        CLEAR     42  41  97 NW6       30.17R
HALLOCK        CLEAR     41  39  93 S5        30.16R
ROSEAU         CLEAR     48  43  81 W5        30.15S
WARROAD        CLEAR     46  43  87 W5        30.15R
THIEF RVR FALL CLEAR     46  45  93 CALM      30.18R
CROOKSTON      CLEAR     46  45  93 CALM      30.19R
FOSSTON        CLEAR     37  36  93 CALM      30.18S FOG
DETROIT LAKES  CLEAR     46  45  93 NW5       30.19S
MOORHEAD       CLEAR     46  45  93 CALM      30.20S
PARK RAPIDS    CLEAR     45  42  89 NW7       30.16S
MAHNOMEN       FAIR      43  42  97 CALM      30.18R
$$
MNZ006-009>011-018-025>026-071200-
   North Central Minnesota

CITY           SKY/WX    TMP DP  RH WIND       PRES   REMARKS
BAUDETTE       CLEAR     45  42  89 W6        30.14R
FLAG ISLAND    CLEAR     52  46  82 NW8       30.12S
INTL FALLS     CLEAR     39  38  96 CALM      30.12R
WASKISH        CLEAR     52  45  76 NW6       30.15R
BIG FORK       CLEAR     39  39 100 CALM      30.15R
LONGVILLE      CLEAR     45  45 100 CALM      30.15S
GRAND RAPIDS   CLEAR     43  39  87 CALM      30.14S
CRANE LAKE     CLEAR     41  39  93 CALM      30.13R
COOK           CLEAR     45  43  93 CALM      30.14R
WALKER         FAIR      43  42  96 W3        30.16R
$$
MNZ012-019>021-037-071200-
   Northeast Minnesota

CITY           SKY/WX    TMP DP  RH WIND       PRES   REMARKS
DULUTH         MOCLDY    52  44  74 NW6       30.12R
ELY            CLOUDY    50  45  81 NW5       30.11R
HIBBING        FOG       40  39  97 CALM      30.14R VSB 1
DULUTH HARBOR    N/A     57  48  72 NW10      30.11R
TWO HARBORS    CLOUDY    55  46  71 NW3       30.09R
SILVER BAY     CLOUDY    54  46  76 W3        30.08S
GRAND MARAIS     N/A     51  47  86 CALM      30.07R
G MARAIS ARPRT CLEAR     46  43  87 CALM      30.08R
$$
MNZ029>031-032-039>041-046>048-054>057-064-071200-
   West Central Minnesota

CITY           SKY/WX    TMP DP  RH WIND       PRES   REMARKS
FERGUS FALLS   CLEAR     48  46  93 CALM      30.20R
WHEATON        CLEAR     46  43  87 CALM      30.21S
MORRIS         CLEAR     46  45  93 NW5       30.18R
ALEXANDRIA     CLEAR     50  47  89 N6        30.19R
ELBOW LAKE     FAIR      48  46  95 NW5       30.19R
WADENA         CLEAR     43  43 100 NW3       30.17S
GLENWOOD       CLEAR     46  45  93 CALM      30.18R
APPLETON       CLEAR     48  45  87 NW5       30.18R
BENSON         CLEAR     46  45  93 CALM      30.18R
ORTONVILLE     CLEAR     50  46  87 NW5       30.19R
MADISON        CLEAR     50  46  87 NW6       30.19R
WILLMAR        FAIR      50  46  87 N6        30.19R
$$
MNZ033>034-036-042>043-049>051-058-059-071200-
   Central Minnesota

CITY           SKY/WX    TMP DP  RH WIND       PRES   REMARKS
ST CLOUD       CLEAR     49  46  90 NW5       30.15R
SAUK CENTRE    FAIR      48  45  89 N6        30.17S
PAYNESVILLE    CLEAR     46  44  95 W6        30.17R
AITKIN           N/A     43  37  81 CALM      30.14R HAZE
PINE RIVER     CLEAR     45  45 100 CALM      30.19R
BRAINERD       CLEAR     47  45  93 CALM      30.16R
STAPLES        CLEAR     45  43  93 NW3       30.17R
LONG PRAIRIE   FAIR      45  43  93 NW5       30.18R
LITTLE FALLS   CLEAR     46  45  93 CALM      30.16S
LITCHFIELD     CLEAR     52  48  87 N8        30.17R
BUFFALO        CLEAR     52  47  81 NW6       30.15R
MAPLE LAKE     CLEAR     52  48  87 NW8       30.16R
$$
MNZ037-044-045-052-053-071200-
   East Central Minnesota

CITY           SKY/WX    TMP DP  RH WIND       PRES   REMARKS
PRINCETON      CLEAR     48  46  93 CALM      30.14S
MORA           CLEAR     48  43  81 CALM      30.16R
CAMBRIDGE      PTCLDY    52  43  71 NW6       30.11S
RUSH CITY      MOCLDY    50  45  81 N5        30.13R
MOOSE LAKE     PTCLDY    46  43  87 CALM      30.12R
HINCKLEY       FAIR      50  45  81 NW7       30.13R
CLOQUET        PTCLDY    48  43  81 NW3       30.13R
MCGREGOR       CLEAR     45  43  93 NW3       30.15R
$$
MNZ071>073-080-081-089-090-097-098-071200-
   Southwest Minnesota

CITY           SKY/WX    TMP DP  RH WIND       PRES   REMARKS
MONTEVIDEO     CLEAR     48  46  93 N5          N/A
GRANITE FALLS  CLEAR     49  46  91 NW7       30.19R
CANBY          CLEAR     48  46  91 NW5       30.20R
MARSHALL       CLEAR     46  43  87 NW6         N/A
REDWOOD FALLS  CLEAR     50  47  89 NW5       30.17R
OLIVIA         CLEAR     46  45  93 NW5       30.16R
PIPESTONE      CLEAR     50  46  87 CALM      30.18R
WINDOM         CLEAR     48  46  93 N8        30.16R
WORTHINGTON    CLEAR     48  43  81 N7        30.16S
JACKSON        PTCLDY    50  46  87 NW8       30.15S
TRACY          CLEAR     50  49  94 NW6       30.18R
SLAYTON        CLEAR     48  47  98 CALM      30.18R
$$
MNZ065>067-074>077-082>085-091>093-071200-
   South Central Minnesota

CITY           SKY/WX    TMP DP  RH WIND       PRES   REMARKS
MANKATO        CLEAR     50  45  81 N7        30.13R
NEW ULM        PTCLDY    50  46  87 NW7       30.15R
ST JAMES         N/A     48  48 100 NW6       30.15S
FAIRMONT       CLEAR     52  43  71 N9        30.12S
GLENCOE        CLEAR     51  49  93 NW5       30.14R
FARIBAULT      CLEAR     52  48  87 NW7       30.12R
OWATONNA       CLEAR     50  46  87 CALM      30.13R
WASECA         CLEAR     50  46  87 NW5       30.14R
ALBERT LEA     CLEAR     52  48  87 N8        30.10R
$$
MNZ078>079-086>088-094>096-071200-
   Southeast Minnesota

CITY           SKY/WX    TMP DP  RH WIND       PRES   REMARKS
ROCHESTER      CLEAR     51  48  89 N9        30.10R
RED WING       CLEAR     54  48  82 N3        30.10R
DODGE CENTER   PTCLDY    52  48  87 N6        30.11R
WINONA         CLEAR     54  48  82 NW5       30.07R
AUSTIN         CLEAR     54  48  82 N5        30.09R
PRESTON        CLEAR     51  47  87 N8        30.08R
$$
ABBREVIATIONS USED IN REMARKS
   TC - TEMPERATURES IN CELSIUS
  WCI - WIND CHILL INDEX
   HX - HEAT INDEX
  VSB - VISIBILITY
$$


USA.gov is the U.S. government's official web portal to all federal, state and local government web resources and services.